Flag for Brunei Weather past 2 weeks in Bandar Seri Begawan, Brunei

Now
82 °F

Broken clouds.


Feels Like: 91 °F
Forecast: 78 / 89 °F
Wind: 12 mph from South

Location: Brunei Airport

Current Time: Dec 18, 2014 at 10:25:59 AM

Latest Report: Dec 18, 2014 at 10:00 AM


Visibility: N/A

Pressure: 29.89 "Hg

Humidity: 84%

Dew point: 77 °F

Location of Bandar Seri BegawanLocation

Historic Weather in Bandar Seri Begawan — Graph

°F

Bandar Seri Begawan temperature yesterday

Maximum temperature yesterday: 90 °F (at 12:00 PM)
Minimum temperature yesterday: 75 °F (at 5:30 AM)
Average temperature yesterday: 82 °F

Past Weeks' High & Low Weather Summary

 TemperatureHumidityPressure
High91 °F (Dec 12, 1:00 PM)100% (Dec 4, 4:00 AM)29.92 "Hg (Dec 4, 4:00 AM)
Low75 °F (Dec 5, 3:00 AM)56% (Dec 14, 2:00 PM)29.71 "Hg (Dec 17, 4:00 PM)
Average82 °F84%29.83 "Hg
* Reported Dec 3 9:00 AM — Dec 18 9:00 AM, Bandar Seri Begawan, Weather by CustomWeather, © 2014

Note: Actual official high and low records may vary slightly from our data, if they occured in-between our weather recording intervals... More about our weather records

Advertising

Bandar Seri Begawan weather history for previous 24 hours

 ConditionsComfort  
Time TempWeatherWind HumidityBarometerVisibility
9:00 AM
Dec 18
81 °FPartly sunny.12 mph89%29.89 "HgN/A
8:30 AM81 °FPartly sunny.8 mph89%29.89 "HgN/A
8:00 AM79 °FPartly sunny.3 mph89%29.86 "HgN/A
7:30 AM77 °FPartly sunny.3 mph94%29.86 "HgN/A
7:00 AM77 °FPartly sunny.5 mph94%29.83 "HgN/A
6:30 AM77 °FPartly sunny.5 mph94%29.83 "HgN/A
6:00 AM77 °FPassing clouds.3 mph94%29.83 "HgN/A
5:30 AM77 °FPassing clouds.5 mph94%29.83 "HgN/A
5:00 AM77 °FPassing clouds.5 mph94%29.80 "HgN/A
4:30 AM77 °FPassing clouds.6 mph94%29.80 "HgN/A
4:00 AM77 °FPassing clouds.8 mph94%29.80 "Hg6 mi
3:30 AM77 °FSprinkles. Passing clouds.6 mph94%29.80 "Hg6 mi
2:30 AM77 °FSprinkles. Passing clouds.10 mph94%29.80 "Hg6 mi
2:00 AM77 °FPassing clouds.7 mph94%29.80 "HgN/A
1:30 AM77 °FPassing clouds.6 mph94%29.83 "HgN/A
1:00 AM77 °FPassing clouds.6 mph94%29.83 "HgN/A
12:30 AM77 °FPassing clouds.6 mph94%29.83 "HgN/A
12:00 AM77 °FPassing clouds.8 mph94%29.86 "HgN/A
11:30 PM
Dec 17
77 °FPartly cloudy.7 mph94%29.86 "HgN/A
11:00 PM77 °FLight rain. Partly cloudy.7 mph100%29.86 "HgN/A
10:30 PM77 °FLight rain. Partly cloudy.6 mph100%29.83 "Hg6 mi
10:00 PM79 °FLight rain. Partly cloudy.9 mph94%29.83 "Hg4 mi
9:30 PM81 °FLight rain. Partly cloudy.7 mph94%29.83 "Hg3 mi
9:00 PM81 °FThunderstorms. Partly cloudy.3 mph94%29.83 "Hg3 mi
8:30 PM82 °FThunderstorms. Partly cloudy.5 mph89%29.80 "HgN/A
8:00 PM84 °FThunderstorms. Partly cloudy.7 mph84%29.80 "HgN/A
7:30 PM84 °FThunderstorms. Partly cloudy.6 mph84%29.77 "HgN/A
7:00 PM84 °FThunderstorms. Partly cloudy.6 mph84%29.77 "HgN/A
6:30 PM84 °FThunderstorms. Passing clouds.6 mph84%29.77 "HgN/A
6:00 PM84 °FThunderstorms. Partly sunny.5 mph84%29.74 "HgN/A
5:30 PM84 °FThunderstorms. Partly sunny.9 mph84%29.74 "HgN/A
5:00 PM84 °FPartly sunny.9 mph84%29.71 "HgN/A
4:30 PM86 °FPartly sunny.10 mph79%29.71 "HgN/A
4:00 PM86 °FPartly sunny.13 mph75%29.71 "HgN/A
3:30 PM88 °FPartly sunny.10 mph75%29.74 "HgN/A
3:00 PM88 °FPartly sunny.13 mph70%29.74 "HgN/A
2:30 PM88 °FPartly sunny.10 mph66%29.74 "HgN/A
2:00 PM88 °FPartly sunny.9 mph70%29.74 "HgN/A
1:30 PM88 °FPartly sunny.7 mph70%29.77 "HgN/A
1:00 PM88 °FPartly sunny.7 mph70%29.80 "HgN/A
12:30 PM88 °FBroken clouds.7 mph70%29.80 "HgN/A
12:00 PM90 °FBroken clouds.3 mph67%29.80 "HgN/A
11:30 AM88 °FPartly sunny.3 mph66%29.83 "HgN/A
11:00 AM88 °FPartly sunny.3 mph66%29.83 "HgN/A
10:30 AM84 °FPartly sunny.2 mph79%29.86 "HgN/A
10:00 AM84 °FBroken clouds.2 mph79%29.86 "HgN/A
Weather by CustomWeather, © 2014

See weather overviewHow to use our weather pages